GLD1793 TFFF-TDCF

Flight info

Callsign GLD1793
Flight time 0h 30m
Altitude 50000
Route EMOL2R EMOLA DCT
Aircraft BE58/M-SDFGIRY/S

Departure

Time 2026-05-04 19:18
Airport Martinique Aimé Césaire International Airport (TFFF)

Arrival

Time 2026-05-04 19:48
Airport Canefield Airport (TDCF)
Time Latitude Longitude Altitude Speed Heading
2026-05-04 19:13 14.59292 -61.00698 5 ft 0 kts 167°
2026-05-04 19:16 14.59242 -61.00698 5 ft 13 kts 178°
2026-05-04 19:16 14.59152 -61.00683 5 ft 15 kts 169°
2026-05-04 19:16 14.59086 -61.00673 5 ft 0 kts 168°
2026-05-04 19:17 14.59083 -61.00672 5 ft 2 kts 168°
2026-05-04 19:17 14.59055 -61.00624 4 ft 21 kts 86°
2026-05-04 19:17 14.59130 -61.00189 4 ft 94 kts 80°
2026-05-04 19:17 14.59265 -60.99409 69 ft 121 kts 79°
2026-05-04 19:18 14.59509 -60.98521 275 ft 139 kts 75°
2026-05-04 19:18 14.60102 -60.97688 441 ft 154 kts 32°
2026-05-04 19:18 14.61194 -60.97591 650 ft 168 kts 351°
2026-05-04 19:18 14.62329 -60.97893 859 ft 172 kts 353°
2026-05-04 19:19 14.63516 -60.98247 1072 ft 177 kts 351°
2026-05-04 19:19 14.64701 -60.98420 1280 ft 173 kts 14°
2026-05-04 19:19 14.65877 -60.98100 1513 ft 178 kts 18°
2026-05-04 19:19 14.67121 -60.97919 1744 ft 182 kts 10°
2026-05-04 19:20 14.68398 -60.97799 1972 ft 186 kts 10°
2026-05-04 19:20 14.69695 -60.97678 2194 ft 188 kts 11°
2026-05-04 19:20 14.71000 -60.97551 2399 ft 187 kts 10°
2026-05-04 19:20 14.72266 -60.97430 2630 ft 181 kts 12°
2026-05-04 19:21 14.73518 -60.97307 2840 ft 179 kts 11°
2026-05-04 19:21 14.74769 -60.97183 3004 ft 184 kts 10°
2026-05-04 19:21 14.76067 -60.97057 3016 ft 192 kts
2026-05-04 19:21 14.77421 -60.96925 3014 ft 197 kts
2026-05-04 19:22 14.78792 -60.96793 3018 ft 197 kts 10°
2026-05-04 19:22 14.80145 -60.96661 3018 ft 198 kts 10°
2026-05-04 19:22 14.81519 -60.96528 3022 ft 198 kts
2026-05-04 19:22 14.82894 -60.96394 3022 ft 198 kts 10°
2026-05-04 19:23 14.84270 -60.96261 3024 ft 198 kts 11°
2026-05-04 19:23 14.85641 -60.96127 3021 ft 195 kts 10°
2026-05-04 19:23 14.86960 -60.96001 3018 ft 187 kts 10°
2026-05-04 19:23 14.88250 -60.95875 3016 ft 184 kts 11°
2026-05-04 19:24 14.89513 -60.95752 3014 ft 182 kts 11°
2026-05-04 19:24 14.90752 -60.95638 3011 ft 181 kts
2026-05-04 19:24 14.91941 -60.96071 3012 ft 189 kts 323°
2026-05-04 19:24 14.92603 -60.97242 3012 ft 194 kts 280°
2026-05-04 19:25 14.92714 -60.98633 3017 ft 194 kts 277°
2026-05-04 19:25 14.93041 -60.99982 3021 ft 193 kts 289°
2026-05-04 19:25 14.93483 -61.01290 3020 ft 191 kts 289°
2026-05-04 19:25 14.93905 -61.02574 3018 ft 187 kts 289°
2026-05-04 19:26 14.94307 -61.03840 3014 ft 184 kts 289°
2026-05-04 19:26 14.94707 -61.05102 3008 ft 184 kts 288°
2026-05-04 19:26 14.95100 -61.06343 3009 ft 183 kts 288°
2026-05-04 19:26 14.95498 -61.07593 3008 ft 182 kts 287°
2026-05-04 19:27 14.95891 -61.08832 3005 ft 181 kts 287°
2026-05-04 19:27 14.96282 -61.10063 3007 ft 180 kts 287°
2026-05-04 19:27 14.96670 -61.11286 3007 ft 179 kts 287°
2026-05-04 19:27 14.97061 -61.12517 3006 ft 180 kts 287°
2026-05-04 19:28 14.97452 -61.13751 3002 ft 180 kts 288°
2026-05-04 19:28 14.97843 -61.14983 3001 ft 180 kts 287°
2026-05-04 19:28 14.98232 -61.16209 3001 ft 179 kts 287°
2026-05-04 19:28 14.98620 -61.17431 3001 ft 178 kts 287°
2026-05-04 19:29 14.99006 -61.18650 3004 ft 178 kts 287°
2026-05-04 19:29 14.99392 -61.19870 3003 ft 179 kts 287°
2026-05-04 19:29 14.99781 -61.21095 3003 ft 180 kts 287°
2026-05-04 19:29 15.00168 -61.22320 3001 ft 183 kts 287°
2026-05-04 19:30 15.00565 -61.23570 2999 ft 183 kts 287°
2026-05-04 19:30 15.00963 -61.24826 3004 ft 183 kts 287°
2026-05-04 19:30 15.01359 -61.26075 3004 ft 183 kts 287°
2026-05-04 19:30 15.01760 -61.27344 3006 ft 185 kts 287°
2026-05-04 19:31 15.02158 -61.28600 3005 ft 186 kts 288°
2026-05-04 19:31 15.02561 -61.29872 3004 ft 186 kts 287°
2026-05-04 19:31 15.02965 -61.31152 3002 ft 186 kts 287°
2026-05-04 19:31 15.03367 -61.32421 3001 ft 187 kts 287°
2026-05-04 19:32 15.03773 -61.33706 2994 ft 188 kts 287°
2026-05-04 19:32 15.04183 -61.35003 2993 ft 191 kts 286°
2026-05-04 19:32 15.04598 -61.36317 2993 ft 192 kts 286°
2026-05-04 19:32 15.05015 -61.37634 2996 ft 193 kts 286°
2026-05-04 19:33 15.05433 -61.38956 2994 ft 194 kts 286°
2026-05-04 19:33 15.05847 -61.40266 2995 ft 193 kts 287°
2026-05-04 19:33 15.06266 -61.41593 2996 ft 193 kts 287°
2026-05-04 19:33 15.06683 -61.42918 2996 ft 194 kts 287°
2026-05-04 19:34 15.07099 -61.44234 2999 ft 195 kts 287°
2026-05-04 19:34 15.07522 -61.45574 2991 ft 197 kts 286°
2026-05-04 19:34 15.07949 -61.46926 2992 ft 198 kts 287°
2026-05-04 19:34 15.08377 -61.48285 2994 ft 201 kts 287°
2026-05-04 19:35 15.08819 -61.49684 2995 ft 207 kts 288°
2026-05-04 19:35 15.09270 -61.51111 2995 ft 209 kts 288°
2026-05-04 19:35 15.09724 -61.52551 2995 ft 211 kts 288°
2026-05-04 19:35 15.10181 -61.54003 2995 ft 213 kts 288°
2026-05-04 19:36 15.10641 -61.55462 2997 ft 214 kts 287°
2026-05-04 19:36 15.11102 -61.56922 2997 ft 210 kts 287°
2026-05-04 19:36 15.11533 -61.58292 2986 ft 191 kts 287°
2026-05-04 19:36 15.11930 -61.59556 2978 ft 180 kts 288°
2026-05-04 19:37 15.12310 -61.60759 2981 ft 172 kts 290°
2026-05-04 19:37 15.12914 -61.61788 2981 ft 165 kts 317°
2026-05-04 19:37 15.13827 -61.62432 2978 ft 158 kts 343°
2026-05-04 19:37 15.14871 -61.62647 2979 ft 150 kts
2026-05-04 19:38 15.15868 -61.62449 2980 ft 144 kts 29°
2026-05-04 19:38 15.16698 -61.61912 2983 ft 139 kts 47°
2026-05-04 19:38 15.17440 -61.61267 2985 ft 140 kts 45°
2026-05-04 19:38 15.18190 -61.60628 2987 ft 141 kts 46°
2026-05-04 19:39 15.18946 -61.59979 2985 ft 141 kts 46°
2026-05-04 19:39 15.19704 -61.59327 2993 ft 142 kts 46°
2026-05-04 19:39 15.20461 -61.58675 2988 ft 140 kts 46°
2026-05-04 19:39 15.21208 -61.58033 2988 ft 139 kts 47°
2026-05-04 19:40 15.21957 -61.57388 2985 ft 140 kts 46°
2026-05-04 19:40 15.22696 -61.56754 2978 ft 134 kts 47°
2026-05-04 19:40 15.23388 -61.56161 2977 ft 125 kts 47°
2026-05-04 19:40 15.24037 -61.55600 2973 ft 121 kts 46°
2026-05-04 19:41 15.24675 -61.55051 2969 ft 117 kts 47°
2026-05-04 19:41 15.25290 -61.54521 2973 ft 113 kts 46°
2026-05-04 19:41 15.25892 -61.54002 2971 ft 112 kts 46°
2026-05-04 19:41 15.26482 -61.53492 2968 ft 110 kts 47°
2026-05-04 19:42 15.27064 -61.52992 2969 ft 107 kts 48°
2026-05-04 19:42 15.27635 -61.52500 2969 ft 106 kts 47°
2026-05-04 19:42 15.28199 -61.52014 2974 ft 105 kts 47°
2026-05-04 19:42 15.28761 -61.51528 2966 ft 105 kts 47°
2026-05-04 19:43 15.29319 -61.51047 2964 ft 103 kts 47°
2026-05-04 19:43 15.29867 -61.50576 2964 ft 102 kts 47°
2026-05-04 19:43 15.30439 -61.50078 2834 ft 114 kts 47°
2026-05-04 19:43 15.31065 -61.49538 2686 ft 120 kts 46°
2026-05-04 19:44 15.31711 -61.48981 2542 ft 125 kts 46°
2026-05-04 19:44 15.32398 -61.48388 2390 ft 131 kts 44°
2026-05-04 19:44 15.33103 -61.47782 2236 ft 132 kts 45°
2026-05-04 19:44 15.33830 -61.47154 2095 ft 140 kts 45°
2026-05-04 19:45 15.34582 -61.46505 1942 ft 142 kts 43°
2026-05-04 19:45 15.35343 -61.45850 1785 ft 143 kts 44°
2026-05-04 19:45 15.36111 -61.45189 1623 ft 144 kts 45°
2026-05-04 19:45 15.36885 -61.44520 1457 ft 145 kts 44°
2026-05-04 19:46 15.37663 -61.43850 1282 ft 144 kts 45°
2026-05-04 19:46 15.38342 -61.43125 1062 ft 137 kts 63°
2026-05-04 19:46 15.38538 -61.42219 909 ft 131 kts 101°
2026-05-04 19:46 15.38081 -61.41364 510 ft 144 kts 129°
2026-05-04 19:47 15.37348 -61.40633 339 ft 143 kts 147°
2026-05-04 19:47 15.36522 -61.40155 253 ft 135 kts 154°
2026-05-04 19:47 15.35683 -61.39723 204 ft 131 kts 155°
2026-05-04 19:47 15.34861 -61.39421 135 ft 122 kts 162°
2026-05-04 19:48 15.34099 -61.39235 20 ft 100 kts 174°
2026-05-04 19:48 15.33523 -61.39193 9 ft 54 kts 178°
2026-05-04 19:48 15.33316 -61.39191 8 ft 14 kts 180°
2026-05-04 19:48 15.33310 -61.39177 8 ft 4 kts 20°
2026-05-04 19:49 15.33426 -61.39192 8 ft 24 kts 357°
2026-05-04 19:49 15.33544 -61.39200 9 ft 16 kts 357°
2026-05-04 19:49 15.33659 -61.39208 7 ft 18 kts 358°
2026-05-04 19:49 15.33794 -61.39217 6 ft 20 kts 357°
2026-05-04 19:50 15.33895 -61.39220 8 ft 0 kts 18°
2026-05-04 19:50 15.33910 -61.39199 8 ft 9 kts 85°
2026-05-04 19:50 15.33904 -61.39176 8 ft 0 kts 202°
2026-05-04 20:03 15.33900 -61.39185 8 ft 7 kts 280°
2026-05-04 20:03 15.33915 -61.39227 8 ft 2 kts 175°
2026-05-04 20:03 15.33844 -61.39220 7 ft 44 kts 175°
2026-05-04 20:03 15.33279 -61.39185 48 ft 106 kts 175°
2026-05-04 20:04 15.32613 -61.39390 473 ft 111 kts 221°
2026-05-04 20:04 15.32349 -61.40270 582 ft 144 kts 276°
2026-05-04 20:04 15.32823 -61.41167 1017 ft 149 kts 317°
2026-05-04 20:04 15.33685 -61.41785 1261 ft 164 kts 339°
2026-05-04 20:05 15.34796 -61.42292 1425 ft 177 kts 340°
2026-05-04 20:05 15.35923 -61.42770 1737 ft 172 kts 350°
2026-05-04 20:05 15.37017 -61.42616 2082 ft 154 kts 39°
2026-05-04 20:05 15.37699 -61.41823 2477 ft 145 kts 56°
2026-05-04 20:06 15.38479 -61.41147 2844 ft 147 kts 38°
2026-05-04 20:06 15.39359 -61.40635 3161 ft 152 kts 32°
2026-05-04 20:06 15.40492 -61.40420 3183 ft 176 kts
2026-05-04 20:06 15.41754 -61.40690 3186 ft 200 kts 336°
2026-05-04 20:07 15.42984 -61.41501 3182 ft 214 kts 328°
2026-05-04 20:07 15.44230 -61.42351 3179 ft 214 kts 332°
2026-05-04 20:07 15.45516 -61.43139 3181 ft 218 kts 332°
2026-05-04 20:07 15.46842 -61.43928 3185 ft 221 kts 332°
2026-05-04 20:08 15.48194 -61.44746 3218 ft 226 kts 332°
2026-05-04 20:08 15.49537 -61.45567 3219 ft 222 kts 332°
2026-05-04 20:08 15.50856 -61.46372 3210 ft 218 kts 333°
2026-05-04 20:08 15.52149 -61.47156 3205 ft 212 kts 333°
2026-05-04 20:09 15.53381 -61.47900 3227 ft 200 kts 333°
2026-05-04 20:09 15.54587 -61.48633 3223 ft 204 kts 332°
2026-05-04 20:09 15.55824 -61.49391 3213 ft 208 kts 332°
2026-05-04 20:09 15.57086 -61.50154 3091 ft 216 kts 332°
2026-05-04 20:10 15.58395 -61.50949 2900 ft 222 kts 332°
2026-05-04 20:10 15.59751 -61.51773 2618 ft 231 kts 332°
2026-05-04 20:10 15.61177 -61.52637 2339 ft 241 kts 332°
2026-05-04 20:10 15.62635 -61.53525 2049 ft 243 kts 332°
2026-05-04 20:11 15.64090 -61.54414 1757 ft 242 kts 332°
2026-05-04 20:11 15.65541 -61.55296 1465 ft 241 kts 333°
2026-05-04 20:11 15.66992 -61.56178 1168 ft 241 kts 332°
2026-05-04 20:11 15.68421 -61.57050 1010 ft 232 kts 333°
2026-05-04 20:12 15.69772 -61.57875 1001 ft 219 kts 332°
2026-05-04 20:12 15.71034 -61.58644 991 ft 208 kts 333°
2026-05-04 20:12 15.72267 -61.59393 990 ft 198 kts 332°
2026-05-04 20:12 15.73399 -61.60085 989 ft 186 kts 334°
2026-05-04 20:13 15.74483 -61.60747 986 ft 175 kts 333°
2026-05-04 20:13 15.75505 -61.61371 988 ft 166 kts 335°
2026-05-04 20:13 15.76499 -61.61974 987 ft 165 kts 332°
2026-05-04 20:13 15.77480 -61.62569 989 ft 161 kts 333°
2026-05-04 20:14 15.78425 -61.63148 988 ft 155 kts 333°
2026-05-04 20:14 15.79341 -61.63706 989 ft 150 kts 334°
2026-05-04 20:14 15.80228 -61.64247 989 ft 147 kts 336°
2026-05-04 20:14 15.81109 -61.64783 989 ft 145 kts 335°
2026-05-04 20:15 15.81950 -61.65298 988 ft 136 kts 335°
2026-05-04 20:15 15.82767 -61.65703 989 ft 120 kts 355°
2026-05-04 20:15 15.83519 -61.65677 985 ft 100 kts 28°
2026-05-04 20:15 15.84100 -61.65381 988 ft 90 kts 52°
2026-05-04 20:16 15.84540 -61.64846 1006 ft 110 kts 69°
2026-05-04 20:16 15.84799 -61.64029 1019 ft 128 kts 78°
2026-05-04 20:16 15.85053 -61.63105 1016 ft 140 kts 79°
2026-05-04 20:16 15.85328 -61.62120 1015 ft 146 kts 78°
2026-05-04 20:17 15.85707 -61.61162 813 ft 142 kts 58°
2026-05-04 20:17 15.86359 -61.60479 565 ft 123 kts 52°
2026-05-04 20:17 15.86609 -61.59824 566 ft 92 kts 95°
2026-05-04 20:17 15.86468 -61.59132 334 ft 109 kts 104°
2026-05-04 20:18 15.86381 -61.58321 67 ft 116 kts 81°
2026-05-04 20:18 15.86564 -61.57560 107 ft 110 kts 83°
2026-05-04 20:18 15.86908 -61.56865 459 ft 122 kts 35°
2026-05-04 20:18 15.87795 -61.57113 576 ft 159 kts 307°
2026-05-04 20:19 15.87913 -61.58175 721 ft 154 kts 243°
2026-05-04 20:19 15.87301 -61.59046 686 ft 136 kts 210°
2026-05-04 20:19 15.86512 -61.59150 371 ft 107 kts 145°
2026-05-04 20:19 15.85861 -61.58683 442 ft 115 kts 138°
2026-05-04 20:20 15.85498 -61.58099 966 ft 97 kts 88°
2026-05-04 20:20 15.86198 -61.57751 834 ft 145 kts 355°
2026-05-04 20:20 15.87058 -61.58333 655 ft 160 kts 308°
2026-05-04 20:20 15.87489 -61.59364 652 ft 155 kts 273°
2026-05-04 20:21 15.87123 -61.60263 661 ft 119 kts 206°
2026-05-04 20:21 15.86559 -61.60021 587 ft 108 kts 99°
2026-05-04 20:21 15.86364 -61.58606 155 ft 92 kts 96°
2026-05-04 20:22 15.86452 -61.58026 13 ft 65 kts 78°
2026-05-04 20:22 15.86502 -61.57851 14 ft 1 kts 94°
2026-05-04 20:22 15.86488 -61.57868 14 ft 9 kts 264°
2026-05-04 20:22 15.86512 -61.57933 13 ft 10 kts 299°
2026-05-04 20:23 15.86517 -61.57968 14 ft 0 kts 212°
2026-05-04 20:31 15.86495 -61.57979 14 ft 8 kts 184°
2026-05-04 20:31 15.86471 -61.57961 13 ft 0 kts 74°
2026-05-04 20:31 15.86520 -61.57776 16 ft 63 kts 79°
2026-05-04 20:32 15.86722 -61.57238 148 ft 87 kts 69°
2026-05-04 20:32 15.86989 -61.56625 420 ft 99 kts 61°
2026-05-04 20:32 15.87708 -61.56408 690 ft 135 kts 345°
2026-05-04 20:32 15.88579 -61.56526 1120 ft 130 kts 22°
2026-05-04 20:33 15.89289 -61.56016 1587 ft 121 kts 57°
2026-05-04 20:33 15.89768 -61.55186 1589 ft 149 kts 78°
2026-05-04 20:33 15.89761 -61.54042 1513 ft 168 kts 97°
2026-05-04 20:33 15.89631 -61.52784 1423 ft 180 kts 98°
2026-05-04 20:34 15.89485 -61.51494 1328 ft 184 kts 99°
2026-05-04 20:34 15.89232 -61.50180 1218 ft 188 kts 102°
2026-05-04 20:34 15.88967 -61.48828 1101 ft 193 kts 100°
2026-05-04 20:34 15.88715 -61.47445 1007 ft 196 kts 100°
2026-05-04 20:35 15.88466 -61.46052 1006 ft 194 kts 99°
2026-05-04 20:35 15.88221 -61.44685 1006 ft 192 kts 100°
2026-05-04 20:35 15.87977 -61.43327 1006 ft 190 kts 101°
2026-05-04 20:35 15.87733 -61.41969 1005 ft 191 kts 100°
2026-05-04 20:36 15.87487 -61.40610 1006 ft 191 kts 101°
2026-05-04 20:36 15.87239 -61.39273 1010 ft 190 kts 101°
2026-05-04 20:36 15.87000 -61.37922 1009 ft 189 kts 100°
2026-05-04 20:36 15.86763 -61.36590 1007 ft 186 kts 99°
2026-05-04 20:37 15.86527 -61.35274 1003 ft 186 kts 101°
2026-05-04 20:37 15.86282 -61.33944 1000 ft 187 kts 102°
2026-05-04 20:37 15.86046 -61.32709 988 ft 163 kts 103°
2026-05-04 20:37 15.85443 -61.31808 991 ft 152 kts 146°
2026-05-04 20:38 15.84528 -61.31322 996 ft 142 kts 136°
2026-05-04 20:38 15.83910 -61.30590 1044 ft 127 kts 97°
2026-05-04 20:38 15.84380 -61.29872 736 ft 146 kts 24°
2026-05-04 20:38 15.85364 -61.29751 577 ft 129 kts 15°
2026-05-04 20:39 15.86117 -61.29446 474 ft 113 kts 39°
2026-05-04 20:39 15.86594 -61.28794 303 ft 114 kts 78°
2026-05-04 20:39 15.86709 -61.28008 138 ft 110 kts 86°
2026-05-04 20:39 15.86841 -61.27276 24 ft 89 kts 85°
2026-05-04 20:40 15.86913 -61.26844 19 ft 20 kts 76°
2026-05-04 20:40 15.86917 -61.26830 19 ft 0 kts 75°
2026-05-04 20:41 15.86920 -61.26826 19 ft 1 kts 28°
2026-05-04 20:41 15.86924 -61.26854 19 ft 8 kts 257°
2026-05-04 20:41 15.86905 -61.26938 19 ft 15 kts 254°
2026-05-04 20:42 15.86877 -61.27058 21 ft 19 kts 252°
2026-05-04 20:42 15.86887 -61.27153 20 ft 10 kts 328°
2026-05-04 20:42 15.86932 -61.27201 21 ft 4 kts 258°